,,PA_Meas_PMT16A,,PR_Meas_QMR101_102,,RH_Meas_QMH101,,SR_Meas_QMS101,,TA_Meas_QMH101,,GenWind,,GenWind,
time,status,PA,status,PR,status,RH,status,SR,status,TA,status,DirAvg,status,SpdAvg,
2015-05-12, 07:04:04,VALID,917.664,VALID,0,VALID,98.7309,VALID,84.3413,VALID,20.5609,VALID,153,VALID,0,
2015-05-12, 07:05:04,VALID,917.661,VALID,0,VALID,98.7614,VALID,97.2342,VALID,20.6015,VALID,153,VALID,0,
2015-05-12, 07:06:04,VALID,917.647,VALID,0,VALID,98.7309,VALID,100.887,VALID,20.5999,VALID,153,VALID,0,
2015-05-12, 07:07:04,VALID,917.626,VALID,0,VALID,98.7004,VALID,103.681,VALID,20.66,VALID,138,VALID,0,
2015-05-12, 07:08:04,VALID,917.656,VALID,0,VALID,98.708,VALID,107.763,VALID,20.717,VALID,132,VALID,0,
2015-05-12, 07:09:04,VALID,917.627,VALID,0,VALID,98.6775,VALID,112.276,VALID,20.795,VALID,132,VALID,0,
2015-05-12, 07:10:04,VALID,917.658,VALID,0,VALID,98.6851,VALID,116.359,VALID,20.8145,VALID,132,VALID,0,
2015-05-12, 07:11:04,VALID,917.698,VALID,0,VALID,98.6622,VALID,120.442,VALID,20.873,VALID,132,VALID,0,
2015-05-12, 07:12:04,VALID,917.651,VALID,0,VALID,98.6546,VALID,124.632,VALID,20.873,VALID,134,VALID,0,
2015-05-12, 07:13:04,VALID,917.69,VALID,0,VALID,98.647,VALID,127.21,VALID,20.9511,VALID,134,VALID,0,
2015-05-12, 07:14:04,VALID,917.667,VALID,0,VALID,98.6394,VALID,131.293,VALID,21.0096,VALID,133,VALID,0,
2015-05-12, 07:15:04,VALID,917.68,VALID,0,VALID,98.6241,VALID,135.483,VALID,21.1071,VALID,134,VALID,0,
2015-05-12, 07:16:04,VALID,917.672,VALID,0,VALID,98.6089,VALID,139.459,VALID,21.1657,VALID,134,VALID,0,
2015-05-12, 07:17:04,VALID,917.676,VALID,0,VALID,98.6241,VALID,143.434,VALID,21.1657,VALID,136,VALID,0,
2015-05-12, 07:18:04,VALID,917.701,VALID,0,VALID,98.6318,VALID,148.376,VALID,21.1836,VALID,136,VALID,0,
2015-05-12, 07:19:04,VALID,917.659,VALID,0,VALID,98.6546,VALID,152.459,VALID,21.2242,VALID,136,VALID,0,
2015-05-12, 07:20:04,VALID,917.679,VALID,0,VALID,98.6851,VALID,156.219,VALID,21.2226,VALID,129,VALID,0,
2015-05-12, 07:21:04,VALID,917.688,VALID,0,VALID,98.7232,VALID,159.443,VALID,21.164,VALID,133,VALID,0,
2015-05-12, 07:22:04,VALID,917.722,VALID,0,VALID,98.708,VALID,162.451,VALID,21.2421,VALID,117,VALID,0,
2015-05-12, 07:23:04,VALID,917.697,VALID,0,VALID,98.708,VALID,165.137,VALID,21.3022,VALID,130,VALID,0,
2015-05-12, 07:24:04,VALID,917.712,VALID,0,VALID,98.7156,VALID,167.716,VALID,21.3201,VALID,133,VALID,0,
2015-05-12, 07:25:04,VALID,917.709,VALID,0,VALID,98.708,VALID,170.617,VALID,21.3608,VALID,133,VALID,0,
2015-05-12, 07:26:04,VALID,917.735,VALID,0,VALID,98.7461,VALID,174.807,VALID,21.3396,VALID,128,VALID,0,
2015-05-12, 07:27:04,VALID,917.783,VALID,0,VALID,98.7004,VALID,179.856,VALID,21.4778,VALID,127,VALID,0,
2015-05-12, 07:28:04,VALID,917.784,VALID,0,VALID,98.6775,VALID,184.154,VALID,21.5542,VALID,126,VALID,0,
2015-05-12, 07:29:04,VALID,917.842,VALID,0,VALID,98.6851,VALID,187.592,VALID,21.6144,VALID,126,VALID,0,
2015-05-12, 07:30:04,VALID,917.856,VALID,0,VALID,98.6089,VALID,191.353,VALID,21.8079,VALID,126,VALID,0,
2015-05-12, 07:31:04,VALID,917.868,VALID,0,VALID,98.5936,VALID,195.973,VALID,21.8664,VALID,111,VALID,0,
2015-05-12, 07:32:04,VALID,917.937,VALID,0,VALID,98.6699,VALID,198.766,VALID,21.8859,VALID,112,VALID,0,
2015-05-12, 07:33:04,VALID,917.967,VALID,0,VALID,98.6699,VALID,201.022,VALID,21.9444,VALID,110,VALID,0,
2015-05-12, 07:34:04,VALID,918.002,VALID,0,VALID,98.6927,VALID,202.097,VALID,21.9835,VALID,111,VALID,0,
2015-05-12, 07:35:04,VALID,918.041,VALID,0,VALID,98.6775,VALID,202.956,VALID,22.0827,VALID,111,VALID,0,
2015-05-12, 07:36:04,VALID,918.052,VALID,0,VALID,98.7004,VALID,204.353,VALID,22.1022,VALID,111,VALID,0,
2015-05-12, 07:37:04,VALID,918.12,VALID,0,VALID,98.7537,VALID,194.683,VALID,22.1022,VALID,38,VALID,0,
2015-05-12, 07:38:04,VALID,918.113,VALID,0,VALID,98.7004,VALID,193.716,VALID,22.1608,VALID,12,VALID,0,
2015-05-12, 07:40:04,VALID,918.165,VALID,0,VALID,98.5784,VALID,139.996,VALID,22.1379,VALID,34,VALID,0,
2015-05-12, 07:41:04,VALID,918.15,VALID,0,VALID,98.4107,VALID,138.814,VALID,22.0989,VALID,34,VALID,0,
2015-05-12, 07:42:04,VALID,918.205,VALID,0,VALID,98.1972,VALID,157.616,VALID,22.1379,VALID,42,VALID,0,
2015-05-12, 07:43:04,VALID,918.21,VALID,0,VALID,97.999,VALID,218.213,VALID,22.1591,VALID,51,VALID,0,
2015-05-12, 07:44:04,VALID,918.198,VALID,0,VALID,97.8237,VALID,245.288,VALID,22.1574,VALID,63,VALID,0,
2015-05-12, 07:45:04,VALID,918.236,VALID,0,VALID,97.4577,VALID,257.214,VALID,22.1379,VALID,81,VALID,0,
2015-05-12, 07:46:04,VALID,918.243,VALID,0,VALID,97.0994,VALID,264.52,VALID,22.2159,VALID,74,VALID,0,
2015-05-12, 07:47:04,VALID,918.275,VALID,0,VALID,96.7488,VALID,270.644,VALID,22.3347,VALID,74,VALID,0,
2015-05-12, 07:48:04,VALID,918.31,VALID,0,VALID,95.9941,VALID,275.264,VALID,22.4111,VALID,44,VALID,0,
2015-05-12, 07:49:04,VALID,918.324,VALID,0,VALID,94.9573,VALID,278.81,VALID,22.5477,VALID,44,VALID,0,
2015-05-12, 07:50:04,VALID,918.355,VALID,0,VALID,93.646,VALID,280.529,VALID,22.624,VALID,44,VALID,0,
2015-05-12, 07:51:04,VALID,918.376,VALID,0,VALID,92.9294,VALID,285.579,VALID,22.7623,VALID,358,VALID,0,
2015-05-12, 07:52:04,VALID,918.4,VALID,0,VALID,90.772,VALID,290.521,VALID,22.8209,VALID,8,VALID,0,
2015-05-12, 07:53:04,VALID,918.433,VALID,0,VALID,90.1469,VALID,298.686,VALID,22.938,VALID,351,VALID,0,
2015-05-12, 07:54:04,VALID,918.461,VALID,0,VALID,89.9106,VALID,307.174,VALID,23.016,VALID,1,VALID,0,
2015-05-12, 07:55:04,VALID,918.493,VALID,0,VALID,89.4532,VALID,314.803,VALID,23.0746,VALID,15,VALID,0,
2015-05-12, 07:56:04,VALID,918.524,VALID,0,VALID,87.5168,VALID,321.679,VALID,23.0746,VALID,18,VALID,0,
2015-05-12, 07:57:04,VALID,918.522,VALID,0,VALID,87.1966,VALID,328.448,VALID,23.0551,VALID,24,VALID,0,
2015-05-12, 07:58:04,VALID,918.598,VALID,0,VALID,88.0352,VALID,335.431,VALID,23.0356,VALID,24,VALID,0,
2015-05-12, 07:59:04,VALID,918.63,VALID,0,VALID,88.9348,VALID,346.39,VALID,23.0941,VALID,24,VALID,0,
2015-05-12, 08:00:04,VALID,918.653,VALID,0,VALID,91.1456,VALID,357.994,VALID,23.2502,VALID,38,VALID,0,
2015-05-12, 08:01:04,VALID,918.662,VALID,0,VALID,86.2818,VALID,367.986,VALID,23.3283,VALID,38,VALID,0,
2015-05-12, 08:02:04,VALID,918.713,VALID,0,VALID,87.5168,VALID,372.176,VALID,23.504,VALID,39,VALID,0,
2015-05-12, 08:03:04,VALID,918.721,VALID,0,VALID,87.593,VALID,385.821,VALID,23.7382,VALID,38,VALID,0,
2015-05-12, 08:04:04,VALID,918.724,VALID,0,VALID,86.4419,VALID,395.276,VALID,23.9902,VALID,38,VALID,0,
2015-05-12, 08:05:04,VALID,918.737,VALID,0,VALID,85.9921,VALID,389.797,VALID,24.1677,VALID,38,VALID,0,
2015-05-12, 08:06:04,VALID,918.737,VALID,0,VALID,84.963,VALID,367.986,VALID,24.3435,VALID,38,VALID,0,
2015-05-12, 08:07:04,VALID,918.725,VALID,0,VALID,83.5831,VALID,286.546,VALID,24.4216,VALID,38,VALID,0,
2015-05-12, 08:08:04,VALID,918.766,VALID,0,VALID,84.3455,VALID,215.957,VALID,24.4606,VALID,38,VALID,0,
2015-05-12, 08:09:04,VALID,918.755,VALID,0,VALID,84.0253,VALID,210.692,VALID,24.5387,VALID,22,VALID,0,
2015-05-12, 08:10:04,VALID,918.756,VALID,0,VALID,82.5692,VALID,221.651,VALID,24.5173,VALID,24,VALID,0,
2015-05-12, 08:11:04,VALID,918.757,VALID,0,VALID,83.8728,VALID,313.943,VALID,24.5173,VALID,24,VALID,0,
2015-05-12, 08:12:04,VALID,918.775,VALID,0,VALID,83.7813,VALID,372.821,VALID,24.6345,VALID,24,VALID,0,
2015-05-12, 08:13:04,VALID,918.774,VALID,0,VALID,84.1473,VALID,392.16,VALID,24.7107,VALID,11,VALID,0,
2015-05-12, 08:14:04,VALID,918.781,VALID,0,VALID,82.2795,VALID,403.549,VALID,24.8492,VALID,42,VALID,0,
2015-05-12, 08:15:04,VALID,918.736,VALID,0,VALID,82.8818,VALID,389.259,VALID,24.9078,VALID,36,VALID,0.508594,
2015-05-12, 08:16:04,VALID,918.804,VALID,0,VALID,82.1499,VALID,374.432,VALID,24.8297,VALID,54,VALID,0,
2015-05-12, 08:17:04,VALID,918.797,VALID,0,VALID,83.0266,VALID,317.059,VALID,24.8102,VALID,65,VALID,0,
2015-05-12, 08:18:04,VALID,918.824,VALID,0,VALID,84.8486,VALID,299.331,VALID,24.7693,VALID,55,VALID,0,
2015-05-12, 08:19:04,VALID,918.838,VALID,0,VALID,84.5818,VALID,262.801,VALID,24.8297,VALID,32,VALID,0,
2015-05-12, 08:20:04,VALID,918.867,VALID,0,VALID,83.3925,VALID,255.065,VALID,24.8278,VALID,338,VALID,0,
2015-05-12, 08:21:04,VALID,918.885,VALID,0,VALID,82.7522,VALID,288.265,VALID,24.7107,VALID,359,VALID,0,
2015-05-12, 08:22:04,VALID,918.897,VALID,0,VALID,83.1638,VALID,285.686,VALID,24.5935,VALID,350,VALID,0,
2015-05-12, 08:23:04,VALID,918.865,VALID,0,VALID,82.5235,VALID,343.704,VALID,24.4569,VALID,358,VALID,0.600391,
2015-05-12, 08:24:04,VALID,918.914,VALID,0,VALID,84.6504,VALID,326.943,VALID,24.2617,VALID,9,VALID,0.00585938,
2015-05-12, 08:25:04,VALID,918.875,VALID,0,VALID,84.1701,VALID,402.475,VALID,24.1073,VALID,340,VALID,0,
2015-05-12, 08:26:04,VALID,918.896,VALID,0,VALID,84.5818,VALID,356.919,VALID,24.0701,VALID,354,VALID,0.83125,
2015-05-12, 08:27:04,VALID,918.893,VALID,0,VALID,84.5666,VALID,355.63,VALID,23.9121,VALID,359,VALID,0.816406,
2015-05-12, 08:28:04,VALID,918.908,VALID,0,VALID,86.5868,VALID,370.887,VALID,23.8731,VALID,28,VALID,1.11094,
2015-05-12, 08:29:04,VALID,918.92,VALID,0,VALID,87.5321,VALID,292.777,VALID,23.8908,VALID,3,VALID,0,
2015-05-12, 08:30:04,VALID,918.916,VALID,0,VALID,87.3034,VALID,275.479,VALID,23.9121,VALID,358,VALID,0.021875,
2015-05-12, 08:31:04,VALID,918.963,VALID,0,VALID,87.1509,VALID,246.148,VALID,23.9512,VALID,16,VALID,0.476953,
2015-05-12, 08:32:04,VALID,918.972,VALID,0,VALID,87.2119,VALID,242.602,VALID,23.9121,VALID,350,VALID,0.040625,
2015-05-12, 08:33:04,VALID,919.036,VALID,0,VALID,86.602,VALID,243.139,VALID,23.8926,VALID,349,VALID,0.259766,
2015-05-12, 08:34:04,VALID,919.062,VALID,0,VALID,86.9374,VALID,244.321,VALID,23.834,VALID,14,VALID,0.10625,
2015-05-12, 08:35:04,VALID,919.091,VALID,0,VALID,86.9298,VALID,246.148,VALID,23.7169,VALID,20,VALID,0.683203,
2015-05-12, 08:36:04,VALID,919.097,VALID,0,VALID,87.654,VALID,249.693,VALID,23.5998,VALID,11,VALID,0,
2015-05-12, 08:37:04,VALID,919.095,VALID,0,VALID,86.8002,VALID,254.206,VALID,23.5608,VALID,19,VALID,0,
2015-05-12, 08:38:04,VALID,919.107,VALID,0,VALID,87.3339,VALID,256.569,VALID,23.5022,VALID,9,VALID,0,
2015-05-12, 08:39:04,VALID,919.103,VALID,0,VALID,86.9984,VALID,260.008,VALID,23.4845,VALID,359,VALID,0,
2015-05-12, 08:40:04,VALID,919.073,VALID,0,VALID,87.5778,VALID,300.083,VALID,23.5412,VALID,27,VALID,0,
2015-05-12, 08:41:04,VALID,919.082,VALID,0,VALID,86.2894,VALID,344.886,VALID,23.6388,VALID,349,VALID,0,
2015-05-12, 08:42:04,VALID,919.042,VALID,0,VALID,87.6388,VALID,341.555,VALID,23.756,VALID,13,VALID,0,
2015-05-12, 08:43:04,VALID,919.056,VALID,0,VALID,86.1598,VALID,336.291,VALID,23.7169,VALID,316,VALID,0,
2015-05-12, 08:44:04,VALID,919.075,VALID,0,VALID,87.9971,VALID,318.993,VALID,23.7364,VALID,316,VALID,0,
2015-05-12, 08:45:04,VALID,919.104,VALID,0,VALID,88.9805,VALID,264.52,VALID,23.756,VALID,316,VALID,0,
2015-05-12, 08:46:04,VALID,919.104,VALID,0,VALID,89.6285,VALID,259.47,VALID,23.8731,VALID,359,VALID,0,
2015-05-12, 08:47:04,VALID,919.105,VALID,0,VALID,86.8917,VALID,270.107,VALID,23.9512,VALID,13,VALID,0,
2015-05-12, 08:48:04,VALID,919.116,VALID,0,VALID,87.0137,VALID,337.043,VALID,24.0097,VALID,36,VALID,0,
2015-05-12, 08:49:04,VALID,919.116,VALID,0,VALID,82.4244,VALID,375.077,VALID,23.9902,VALID,335,VALID,0,
2015-05-12, 08:50:04,VALID,919.117,VALID,0,VALID,83.5069,VALID,393.772,VALID,23.9512,VALID,331,VALID,0,
2015-05-12, 08:51:04,VALID,919.101,VALID,0,VALID,85.3594,VALID,407.739,VALID,24.0097,VALID,358,VALID,0,
2015-05-12, 08:52:04,VALID,919.112,VALID,0,VALID,84.5284,VALID,336.721,VALID,24.1073,VALID,360,VALID,0,
2015-05-12, 08:53:04,VALID,919.099,VALID,0,VALID,84.2159,VALID,355.523,VALID,24.0683,VALID,23,VALID,0,
2015-05-12, 08:54:04,VALID,919.079,VALID,0,VALID,86.1598,VALID,299.009,VALID,24.1641,VALID,16,VALID,0,
2015-05-12, 08:55:04,VALID,919.097,VALID,0,VALID,86.724,VALID,261.834,VALID,24.3416,VALID,15,VALID,0,
2015-05-12, 08:56:04,VALID,919.099,VALID,0,VALID,85.6567,VALID,276.231,VALID,24.5173,VALID,4,VALID,0,
2015-05-12, 08:57:04,VALID,919.118,VALID,0,VALID,83.3316,VALID,335.754,VALID,24.4978,VALID,316,VALID,0,
2015-05-12, 08:58:04,VALID,919.159,VALID,0,VALID,84.4598,VALID,492.51,VALID,24.4392,VALID,320,VALID,0,
2015-05-12, 08:59:04,VALID,919.174,VALID,0,VALID,84.8181,VALID,471.774,VALID,24.5155,VALID,343,VALID,0,
2015-05-12, 09:00:04,VALID,919.198,VALID,0,VALID,83.8423,VALID,499.494,VALID,24.7321,VALID,348,VALID,0,
2015-05-12, 09:01:04,VALID,919.198,VALID,0,VALID,83.6289,VALID,525.602,VALID,24.9274,VALID,15,VALID,0,
2015-05-12, 09:02:04,VALID,919.217,VALID,0,VALID,83.4612,VALID,421.814,VALID,25.0817,VALID,15,VALID,0,
2015-05-12, 09:03:04,VALID,919.197,VALID,0,VALID,82.1728,VALID,516.147,VALID,25.355,VALID,15,VALID,0,
2015-05-12, 09:04:04,VALID,919.23,VALID,0,VALID,80.3737,VALID,526.677,VALID,25.5113,VALID,15,VALID,0,
2015-05-12, 09:05:04,VALID,919.222,VALID,0,VALID,79.6952,VALID,505.403,VALID,25.6284,VALID,15,VALID,0,
2015-05-12, 09:06:04,VALID,919.242,VALID,0,VALID,79.8858,VALID,312.117,VALID,25.8042,VALID,21,VALID,0,
2015-05-12, 09:07:04,VALID,919.216,VALID,0,VALID,80.3432,VALID,327.803,VALID,25.8648,VALID,38,VALID,0.897656,
2015-05-12, 09:08:04,VALID,919.234,VALID,0,VALID,79.4512,VALID,261.834,VALID,25.8062,VALID,17,VALID,0,
2015-05-12, 09:09:04,VALID,919.217,VALID,0,VALID,80.7701,VALID,259.685,VALID,25.8257,VALID,16,VALID,0,
2015-05-12, 09:10:04,VALID,919.235,VALID,0,VALID,79.0701,VALID,224.659,VALID,25.8257,VALID,14,VALID,0,
2015-05-12, 09:11:04,VALID,919.243,VALID,0,VALID,79.8324,VALID,212.196,VALID,25.728,VALID,14,VALID,0,
2015-05-12, 09:12:04,VALID,919.202,VALID,0,VALID,80.5338,VALID,213.593,VALID,25.6519,VALID,24,VALID,0,
2015-05-12, 09:13:04,VALID,919.203,VALID,0,VALID,80.8311,VALID,221.006,VALID,25.5132,VALID,12,VALID,0,
2015-05-12, 09:14:04,VALID,919.232,VALID,0,VALID,81.0674,VALID,222.618,VALID,25.396,VALID,5,VALID,0,
2015-05-12, 09:15:04,VALID,919.232,VALID,0,VALID,81.4028,VALID,226.593,VALID,25.2593,VALID,8,VALID,0,
2015-05-12, 09:16:04,VALID,919.189,VALID,0,VALID,81.7154,VALID,226.379,VALID,25.1031,VALID,24,VALID,0,
2015-05-12, 09:17:04,VALID,919.186,VALID,0,VALID,81.6849,VALID,226.379,VALID,25.064,VALID,27,VALID,0,
2015-05-12, 09:18:04,VALID,919.188,VALID,0,VALID,82.188,VALID,227.453,VALID,25.0055,VALID,28,VALID,0,
2015-05-12, 09:19:04,VALID,919.212,VALID,0,VALID,83.3011,VALID,236.371,VALID,24.9859,VALID,30,VALID,0,
2015-05-12, 09:20:04,VALID,919.211,VALID,0,VALID,83.019,VALID,255.925,VALID,24.9859,VALID,30,VALID,0,
2015-05-12, 09:21:04,VALID,919.198,VALID,0,VALID,83.0342,VALID,283.645,VALID,24.9664,VALID,30,VALID,0,
2015-05-12, 09:22:04,VALID,919.188,VALID,0,VALID,82.7522,VALID,359.713,VALID,24.945,VALID,32,VALID,0,
2015-05-12, 09:23:04,VALID,919.177,VALID,0,VALID,81.9441,VALID,383.565,VALID,24.9664,VALID,33,VALID,0,
2015-05-12, 09:24:04,VALID,919.173,VALID,0,VALID,81.2046,VALID,354.126,VALID,25.0426,VALID,33,VALID,0,
2015-05-12, 09:25:04,VALID,919.143,VALID,0,VALID,80.7625,VALID,309.431,VALID,25.0426,VALID,5,VALID,0.439844,
2015-05-12, 09:26:04,VALID,919.139,VALID,0,VALID,81.9593,VALID,289.339,VALID,25.025,VALID,17,VALID,0,
2015-05-12, 09:27:04,VALID,919.122,VALID,0,VALID,82.0737,VALID,285.901,VALID,24.984,VALID,32,VALID,0,
2015-05-12, 09:28:04,VALID,919.115,VALID,0,VALID,81.9593,VALID,282.678,VALID,25.025,VALID,32,VALID,0,
2015-05-12, 09:29:04,VALID,919.099,VALID,0,VALID,81.5782,VALID,287.727,VALID,25.064,VALID,55,VALID,0,
2015-05-12, 09:30:04,VALID,919.121,VALID,0,VALID,81.9975,VALID,291.488,VALID,25.0036,VALID,20,VALID,0,
2015-05-12, 09:31:04,VALID,919.135,VALID,0,VALID,81.2504,VALID,271.396,VALID,25.064,VALID,21,VALID,0,
2015-05-12, 09:32:04,VALID,919.13,VALID,0,VALID,81.2122,VALID,254.098,VALID,25.064,VALID,329,VALID,0,
2015-05-12, 09:33:04,VALID,919.142,VALID,0,VALID,79.7257,VALID,245.933,VALID,25.0836,VALID,344,VALID,0,
2015-05-12, 09:34:04,VALID,919.152,VALID,0,VALID,81.6392,VALID,243.569,VALID,24.9469,VALID,2,VALID,0,
2015-05-12, 09:35:04,VALID,919.153,VALID,0,VALID,81.7154,VALID,236.156,VALID,24.8278,VALID,359,VALID,0,
2015-05-12, 09:36:04,VALID,919.128,VALID,0,VALID,82.8589,VALID,232.61,VALID,24.7321,VALID,33,VALID,0,
2015-05-12, 09:37:04,VALID,919.093,VALID,0,VALID,83.8881,VALID,223.692,VALID,24.6345,VALID,33,VALID,0,
2015-05-12, 09:38:04,VALID,919.121,VALID,0,VALID,83.3773,VALID,224.445,VALID,24.693,VALID,26,VALID,0,
2015-05-12, 09:39:04,VALID,919.115,VALID,0,VALID,82.554,VALID,228.85,VALID,24.6345,VALID,24,VALID,0,
2015-05-12, 09:40:04,VALID,919.09,VALID,0,VALID,83.4612,VALID,244.536,VALID,24.5954,VALID,24,VALID,0,
2015-05-12, 09:41:04,VALID,919.044,VALID,0,VALID,81.7383,VALID,259.9,VALID,24.4587,VALID,237,VALID,0,
2015-05-12, 09:42:04,VALID,919.067,VALID,0,VALID,83.1943,VALID,304.918,VALID,24.2226,VALID,239,VALID,0,
2015-05-12, 09:43:04,VALID,919.085,VALID,0,VALID,84.2692,VALID,298.901,VALID,24.1836,VALID,239,VALID,0,
2015-05-12, 09:44:04,VALID,919.096,VALID,0,VALID,84.2616,VALID,287.083,VALID,24.2421,VALID,235,VALID,0,
2015-05-12, 09:45:04,VALID,919.116,VALID,0,VALID,84.8639,VALID,283.967,VALID,24.3007,VALID,254,VALID,0,
2015-05-12, 09:46:04,VALID,919.147,VALID,0,VALID,83.7432,VALID,265.272,VALID,24.3593,VALID,254,VALID,0,
2015-05-12, 09:47:04,VALID,919.13,VALID,0,VALID,81.6544,VALID,251.842,VALID,24.3611,VALID,241,VALID,0,
2015-05-12, 09:48:04,VALID,919.142,VALID,0,VALID,83.8957,VALID,255.71,VALID,24.3026,VALID,241,VALID,0,
2015-05-12, 09:49:04,VALID,919.127,VALID,0,VALID,83.2706,VALID,294.711,VALID,24.2421,VALID,96,VALID,0,
2015-05-12, 09:50:04,VALID,919.155,VALID,0,VALID,83.5603,VALID,295.785,VALID,24.3202,VALID,96,VALID,0,
2015-05-12, 09:51:04,VALID,919.182,VALID,0,VALID,82.7064,VALID,286.223,VALID,24.4178,VALID,105,VALID,0,
2015-05-12, 09:52:04,VALID,919.206,VALID,0,VALID,82.9123,VALID,319.315,VALID,24.5173,VALID,139,VALID,0,
2015-05-12, 09:53:04,VALID,919.196,VALID,0,VALID,83.2706,VALID,401.078,VALID,24.5564,VALID,174,VALID,0,
2015-05-12, 09:54:04,VALID,919.196,VALID,0,VALID,83.1257,VALID,427.831,VALID,24.693,VALID,195,VALID,0,
2015-05-12, 09:55:04,VALID,919.209,VALID,0,VALID,82.2338,VALID,426.434,VALID,24.6912,VALID,243,VALID,0.232031,
2015-05-12, 09:56:04,VALID,919.225,VALID,0,VALID,83.0266,VALID,352.085,VALID,24.2812,VALID,292,VALID,0.596875,
2015-05-12, 09:57:04,VALID,919.199,VALID,0,VALID,84.315,VALID,342.522,VALID,24.0469,VALID,233,VALID,1.62422,
2015-05-12, 09:58:04,VALID,919.198,VALID,0,VALID,85.8549,VALID,353.159,VALID,23.8536,VALID,265,VALID,1.10859,
2015-05-12, 09:59:04,VALID,919.165,VALID,0,VALID,86.6096,VALID,333.82,VALID,23.8322,VALID,228,VALID,0,
2015-05-12, 10:00:04,VALID,919.153,VALID,0,VALID,85.4966,VALID,472.526,VALID,23.7542,VALID,241,VALID,0.19375,
2015-05-12, 10:01:04,VALID,919.12,VALID,0,VALID,87.2043,VALID,656.358,VALID,23.6193,VALID,265,VALID,0.459766,
2015-05-12, 10:02:04,VALID,919.131,VALID,0,VALID,88.4697,VALID,492.295,VALID,23.6761,VALID,254,VALID,0,
2015-05-12, 10:03:04,VALID,919.093,VALID,0,VALID,86.6401,VALID,683.863,VALID,23.7932,VALID,271,VALID,0,
2015-05-12, 10:04:04,VALID,919.036,VALID,0,VALID,86.5563,VALID,612.415,VALID,23.9493,VALID,269,VALID,0.228516,
2015-05-12, 10:05:04,VALID,919.007,VALID,0,VALID,86.2361,VALID,449.319,VALID,24.1641,VALID,260,VALID,0,
2015-05-12, 10:06:04,VALID,919.002,VALID,0,VALID,86.9603,VALID,621.977,VALID,24.3983,VALID,277,VALID,0,
2015-05-12, 10:07:04,VALID,918.978,VALID,0,VALID,82.5692,VALID,652.598,VALID,24.6131,VALID,280,VALID,0,
2015-05-12, 10:08:04,VALID,918.984,VALID,0,VALID,81.4943,VALID,697.078,VALID,24.5935,VALID,245,VALID,0.00429688,
2015-05-12, 10:09:04,VALID,918.98,VALID,0,VALID,82.2033,VALID,695.789,VALID,24.6521,VALID,263,VALID,0,
2015-05-12, 10:10:04,VALID,918.985,VALID,0,VALID,82.554,VALID,733.608,VALID,24.8669,VALID,276,VALID,0,
2015-05-12, 10:11:04,VALID,918.946,VALID,0,VALID,81.3342,VALID,754.882,VALID,25.0817,VALID,299,VALID,0,
2015-05-12, 10:12:04,VALID,918.989,VALID,0,VALID,80.3051,VALID,770.783,VALID,25.2183,VALID,322,VALID,0,
2015-05-12, 10:13:04,VALID,918.951,VALID,0,VALID,79.7562,VALID,781.742,VALID,25.4117,VALID,302,VALID,0,
2015-05-12, 10:14:04,VALID,919.011,VALID,0,VALID,79.2835,VALID,767.452,VALID,25.7261,VALID,11,VALID,0,
2015-05-12, 10:15:04,VALID,919.034,VALID,0,VALID,76.3333,VALID,741.666,VALID,25.8022,VALID,296,VALID,0,
2015-05-12, 10:16:04,VALID,919.03,VALID,0,VALID,77.1337,VALID,621.654,VALID,25.8628,VALID,293,VALID,0,
2015-05-12, 10:17:04,VALID,919.005,VALID,0,VALID,75.6853,VALID,464.361,VALID,26.0386,VALID,355,VALID,0.0289063,
2015-05-12, 10:18:04,VALID,919.051,VALID,0,VALID,75.5404,VALID,374.218,VALID,26.0776,VALID,27,VALID,0.0140625,
2015-05-12, 10:19:04,VALID,919.045,VALID,0,VALID,75.3956,VALID,386.466,VALID,26.0561,VALID,17,VALID,0.210938,
2015-05-12, 10:20:04,VALID,919.042,VALID,0,VALID,76.3714,VALID,783.676,VALID,26.1733,VALID,19,VALID,0,
2015-05-12, 10:21:04,VALID,919.037,VALID,0,VALID,73.7489,VALID,790.659,VALID,26.0972,VALID,296,VALID,0.0121094,
2015-05-12, 10:22:04,VALID,918.995,VALID,0,VALID,76.1351,VALID,149.021,VALID,25.9995,VALID,334,VALID,0.119531,
2015-05-12, 10:23:04,VALID,918.999,VALID,0,VALID,76.4629,VALID,573.736,VALID,26.1538,VALID,346,VALID,0,
2015-05-12, 10:24:04,VALID,918.955,VALID,0,VALID,73.5431,VALID,622.621,VALID,26.2905,VALID,289,VALID,0,
2015-05-12, 10:25:04,VALID,918.928,VALID,0,VALID,71.7287,VALID,463.609,VALID,25.8823,VALID,278,VALID,0.743359,
2015-05-12, 10:26:04,VALID,918.938,VALID,0,VALID,75.0068,VALID,563.099,VALID,25.5503,VALID,334,VALID,0.0078125,
2015-05-12, 10:27:04,VALID,918.904,VALID,0,VALID,74.6027,VALID,460.6,VALID,25.5718,VALID,325,VALID,0,
2015-05-12, 10:28:04,VALID,918.919,VALID,0,VALID,76.0207,VALID,551.281,VALID,25.4917,VALID,315,VALID,0.151172,
2015-05-12, 10:29:04,VALID,918.92,VALID,0,VALID,76.3638,VALID,588.885,VALID,25.5113,VALID,314,VALID,0.0269531,
2015-05-12, 10:30:04,VALID,918.902,VALID,0,VALID,76.0664,VALID,705.566,VALID,25.4917,VALID,281,VALID,0,
2015-05-12, 10:31:04,VALID,918.887,VALID,0,VALID,77.0727,VALID,385.929,VALID,25.4527,VALID,237,VALID,0.192188,
2015-05-12, 10:32:04,VALID,918.867,VALID,0,VALID,78.8642,VALID,340.696,VALID,25.4507,VALID,277,VALID,0,
2015-05-12, 10:33:04,VALID,918.857,VALID,0,VALID,75.5709,VALID,327.158,VALID,25.4331,VALID,300,VALID,0.813672,
2015-05-12, 10:34:04,VALID,918.836,VALID,0,VALID,76.9203,VALID,332.745,VALID,25.2965,VALID,295,VALID,0,
2015-05-12, 10:35:04,VALID,918.836,VALID,0,VALID,77.431,VALID,347.25,VALID,25.2945,VALID,315,VALID,0,
2015-05-12, 10:36:04,VALID,918.822,VALID,0,VALID,77.9342,VALID,335.216,VALID,25.2965,VALID,260,VALID,0,
2015-05-12, 10:37:04,VALID,918.817,VALID,0,VALID,79.3903,VALID,336.076,VALID,25.3726,VALID,270,VALID,0,
2015-05-12, 10:38:04,VALID,918.766,VALID,0,VALID,79.3369,VALID,349.506,VALID,25.4722,VALID,268,VALID,0,
2015-05-12, 10:39:04,VALID,918.787,VALID,0,VALID,76.8212,VALID,334.357,VALID,25.4722,VALID,293,VALID,0,
2015-05-12, 10:40:04,VALID,918.763,VALID,0,VALID,79.032,VALID,352.514,VALID,25.3531,VALID,257,VALID,0,
2015-05-12, 10:41:04,VALID,918.764,VALID,0,VALID,79.2302,VALID,474.138,VALID,25.4331,VALID,299,VALID,0,
2015-05-12, 10:42:04,VALID,918.747,VALID,0,VALID,79.3445,VALID,478.758,VALID,25.5113,VALID,14,VALID,0,
2015-05-12, 10:43:04,VALID,918.732,VALID,0,VALID,77.8656,VALID,460.493,VALID,25.6284,VALID,348,VALID,0,
2015-05-12, 10:44:04,VALID,918.737,VALID,0,VALID,78.6127,VALID,426.756,VALID,25.7847,VALID,350,VALID,0,
2015-05-12, 10:45:04,VALID,918.711,VALID,0,VALID,79.7257,VALID,438.897,VALID,25.8823,VALID,18,VALID,0,
2015-05-12, 10:46:04,VALID,918.733,VALID,0,VALID,77.9799,VALID,462.856,VALID,26.019,VALID,11,VALID,0.0421875,
2015-05-12, 10:47:04,VALID,918.704,VALID,0,VALID,76.2799,VALID,449.641,VALID,26.0972,VALID,328,VALID,0,
2015-05-12, 10:48:04,VALID,918.679,VALID,0,VALID,76.5696,VALID,862.108,VALID,26.1558,VALID,328,VALID,0.0015625,
2015-05-12, 10:49:04,VALID,918.62,VALID,0,VALID,76.379,VALID,454.584,VALID,26.273,VALID,340,VALID,0,
2015-05-12, 10:50:04,VALID,918.613,VALID,0,VALID,75.1211,VALID,423.533,VALID,26.4292,VALID,308,VALID,0,